Showing default

PAZ, 43215

Orbit data source: Space-Track

PAZ, 43215 is a payload satellite owned by Hisdesat (ES) in SSO that was launched on Thu, 22 Feb 2018 UTC via an FALCON 9 launch vehicle from the Air Force Western Test Range (AFWTR). Payload-class satellites include a variety of spacecraft equipped with specific instruments for various scientific and technological missions. These include communications satellites like Starlink; space stations such as the ISS; scientific satellites like the Hubble; Earth observation satellites from companies like Planet Labs, Umbra, and HawkEye 360; GPS; miniature CubeSats for education and research; and military/defense satellites.

Loading next visibility...
Identifier
43215, 2018-020A
Orbit
SSO
Last TLE update
9 hours ago
Origin
Manufacturer
Airbus Barajas
Mission
Operational Defense Radar Imaging
Bus & Motor
SEOSAR, Unknown motor
Mass
1,400 kg wet, ~1,200 kg dry
Launch date (UTC)
2018-02-22 (7 years ago)
Launch vehicle
FALCON 9
Launch site
Air Force Western Test Range (AFWTR)
Object type
Payload
Rocket body
Debris
Shape & HBR
Hex Cyl, 10 m
Radar Cross Section
10.871 m², Large (>1 m²)

Expand to show TLE details & history

TLE from 9 hours ago
0 PAZ
1 43215U 18020A   25184.20280604  .00001666  00000-0  82499-4 0  9993
2 43215  97.4452 191.5934 0001699  86.9703 273.1726 15.19148228408032
Epoch: 2025-07-03T04:52Z
TLE epoch observation values (Epoch: 2025-07-03T04:52:02.441Z)
Latitude
-0.00004°
Longitude
-162.8897°
Altitude
511.437 km
Speed
7.608 km/s
True Right ascension
12h 46m 22s
True Declination
0° 00' 00"
Sunlit
Object was in daylight at epoch
Visualization orbit readout
Latitude
-47.50349°
Longitude
-154.35418°
Altitude
527.662 km
Speed
7.597 km/s
Apparent Right ascension
13h 38m 24s
Apparent Declination
-43° 45' 38"
Sunlit
Object is in daylight
Visualization observer readout
Local Sidereal Time
01:55:27
Azimuth
141.826° SSE
Elevation
-85.014°
Doppler factor
1
Orbital elements
Apogee altitude
506.552 km
Perigee altitude
504.213 km
Semi-major axis
6,883.519 km
Eccentricity
0.00017
Inclination
97.4452°
RAAN
191.5934°
Arg. of periapsis
86.9703°
True anomaly
Unknown
Mean anomaly
273.1726°
Eccentric anomaly
Unknown
Mean motion
3.80038 °/min
Orbital period
94.73 mins
BSTAR
0.000082499
Loading maneuver chart data...
Loading SW <> Apogee altitude chart data...
Loading historical data...
Loading historical data...
Loading historical data...
Loading historical data...
Loading historical data...
Loading historical data...
Loading historical data...
Other satellites on launch #20 in the year 2018 (2018-02-22 UTC)

PAZ Visibility forecast

Observer location: undefined°, undefined°

Span
Click to sort rows by Start time (UTC) header in descending order
Start Az.
Max El. time (UTC)
Max El. Az.
Max El.
End time (UTC)
End Az.
6 mins2025-07-03 23:58:31.407Z130.543° SE2025-07-04 00:01:31.407Z64.245° ENE26.971°2025-07-04 00:04:31.407Z9.577° NNE
6 mins2025-07-04 13:03:31.407Z30.669° NE2025-07-04 13:05:31.407Z73.75° E34.836°2025-07-04 13:09:31.407Z174.443° S
|